This is the latest recevied weather packets stored in our database for station/object K7YVO. If no packets are shown the sender has not sent any weather packets the latest 10 day(s).
| Time | Temp. | Humidity | Pressure | Rain* | Wind** | Luminosity | Snow |
|---|---|---|---|---|---|---|---|
| 1777917097 | 14.44° C | 80% | 1015.6 hPa | 0 mm | - | 293 W/m² | - |
| 1777916796 | 13.89° C | 81% | 1015.6 hPa | 0 mm | - | 247 W/m² | - |
| 1777916491 | 13.33° C | 82% | 1015.8 hPa | 0 mm | - | 237 W/m² | - |
| 1777916189 | 13.33° C | 83% | 1015.6 hPa | 0 mm | - | 250 W/m² | - |
| 1777915886 | 13.33° C | 83% | 1015.6 hPa | 0 mm | - | 215 W/m² | - |
| 1777915582 | 13.33° C | 84% | 1015.5 hPa | 0 mm | - | 239 W/m² | - |
| 1777915279 | 13.33° C | 83% | 1015.8 hPa | 0 mm | - | 248 W/m² | - |
| 1777914976 | 13.33° C | 83% | 1015.6 hPa | 0 mm | - | 235 W/m² | - |
| 1777914673 | 13.33° C | 83% | 1015.5 hPa | 0 mm | - | 219 W/m² | - |
| 1777914368 | 13.33° C | 83% | 1015.6 hPa | 0 mm | - | 225 W/m² | - |
| 1777914067 | 12.78° C | 85% | 1015.8 hPa | 0 mm | - | 213 W/m² | - |
| 1777913762 | 13.33° C | 83% | 1015.5 hPa | 0 mm | - | 221 W/m² | - |
| 1777913459 | 13.89° C | 82% | 1015.6 hPa | 0 mm | - | 202 W/m² | - |
| 1777913155 | 13.33° C | 83% | 1015.3 hPa | 0 mm | - | 207 W/m² | - |
| 1777912852 | 12.78° C | 85% | 1015.4 hPa | 0 mm | - | 183 W/m² | - |
| 1777912548 | 12.78° C | 86% | 1015.5 hPa | 0 mm | - | 161 W/m² | - |
| 1777912245 | 12.78° C | 85% | 1015.8 hPa | 0 mm | - | 153 W/m² | - |
| 1777911941 | 12.78° C | 85% | 1015.8 hPa | 0 mm | - | 152 W/m² | - |
| 1777911637 | 12.22° C | 87% | 1015.5 hPa | 0 mm | - | 145 W/m² | - |
| 1777911333 | 12.22° C | 88% | 1015.5 hPa | 0 mm | - | 128 W/m² | - |
| 1777911031 | 12.22° C | 88% | 1015.5 hPa | 0 mm | - | 130 W/m² | - |
| 1777910729 | 12.22° C | 88% | 1015.6 hPa | 0 mm | - | 123 W/m² | - |
| 1777910425 | 11.67° C | 88% | 1015.8 hPa | 0 mm | - | 116 W/m² | - |
| 1777910121 | 11.67° C | 88% | 1015.6 hPa | 0 mm | - | 117 W/m² | - |
| 1777909820 | 12.22° C | 88% | 1015.8 hPa | 0 mm | - | 104 W/m² | - |
* Rain latest hour (hover to see other rain measurements)
** Current wind speed in m/s (hover to see current wind gust speed)